[[{"header":{"parameterUnit":"m.s-1","parameterCategory":2,"la1":30.2991,"la2":30.254,"lo1":-89.0895,"lo2":-89.0444,"dy":0.0017,"dx":0.0017,"nx":28,"ny":28,"refTime":"2024-05-23T03:00:00:Z","depth":"0","parameterNumber":2,"parameterNumberName":"U-component_of_CURRENTS"},"data":[0,0,0,0,0,0,0,0,0,0,0,0,0,0,0,0,0,0,0,0,0,0,0,0,0,0,0,0,0,0,0,0,0,0,0,0,0,0,0,0,0,0,0,0,0,0,0,0,0,0,0,0,0,0,0,0,0,0,0.248,0.248,0,0.2518,0.2518,0.2519,0.2522,0.2522,0.2522,0.2522,0.2498,0.2498,0.2497,0,0,0,0,0,0,0,0,0,0,0,0,0,0.2379,0.238,0.248,0.248,0.2481,0.2518,0.2518,0.2519,0.2522,0.2522,0.2522,0.2522,0.2498,0.2498,0.2497,0,0,0,0,0,0,0,0,0,0,0,0,0,0.2418,0.2381,0.248,0.2489,0.2491,0.2518,0.2518,0.2519,0.2522,0.2522,0.2522,0.2522,0.2498,0.2498,0.2497,0.2498,0,0,0.2495,0.2495,0,0,0,0,0,0,0,0,0.2416,0.2421,0.2487,0.2489,0.249,0.2517,0.2474,0.251,0.2522,0.2508,0.2522,0.2521,0.2501,0.25,0.2505,0.2497,0.2496,0.2495,0.2494,0.2494,0.2494,0,0,0,0,0,0,0,0.2413,0.242,0.2492,0.2488,0.249,0.2481,0.2487,0.2481,0.2502,0.2509,0.251,0.2518,0.2501,0.2506,0.2504,0.2495,0.2495,0.2494,0.2494,0.2493,0.2502,0.2503,0,0,0,0,0,0,0.2416,0.2417,0.2491,0.2494,0.2454,0.2484,0.2489,0.2507,0.2503,0.2504,0.2518,0.2518,0.2507,0.2505,0.2503,0.2512,0.2494,0.2493,0.2493,0.2501,0.2502,0.2503,0,0,0,0,0,0,0.2414,0.2422,0.249,0.2457,0.2466,0.2486,0.2505,0.2508,0.2518,0.2512,0.2511,0.2527,0.2507,0.2504,0.2504,0.2511,0.2493,0.2492,0.2501,0.2502,0.2502,0.2524,0,0,0,0,0,0,0.2411,0.2421,0.2435,0.2458,0.2468,0.2513,0.2506,0.2509,0.2525,0.2525,0.2519,0.2516,0.2506,0.2506,0.2504,0.2509,0.2492,0.25,0.2501,0.2502,0.2523,0.2526,0.2528,0,0,0,0,0,0.2407,0.2426,0.2435,0.2444,0.2486,0.2514,0.2518,0.2529,0.2525,0.2535,0.2529,0.2517,0.2512,0.2506,0.2503,0.2509,0.2499,0.2501,0.2502,0.2521,0.2525,0.2528,0,0,0,0,0,0,0.2387,0.2429,0.244,0.247,0.2494,0.2516,0.2527,0.2533,0.2538,0.2535,0.2523,0.252,0.2524,0.2516,0.2509,0.2516,0.2504,0.2505,0.252,0.2523,0.2526,0.2549,0.2491,0,0,0,0,0,0.2391,0.2417,0.2451,0.2475,0.2489,0.2508,0.2521,0.2531,0.2539,0.2542,0.2535,0.253,0.2529,0.2525,0.2523,0.2524,0.2585,0.2528,0.2531,0.2533,0.2552,0.2645,0.2659,0.2508,0.2508,0.2508,0,0,0.239,0.2416,0.2431,0.2473,0.249,0.2507,0.2515,0.2539,0.2547,0.2537,0.254,0.254,0.2533,0.2536,0.2537,0.2529,0.2615,0.2535,0.2537,0.2555,0.2648,0.2664,0.2677,0.2509,0.2508,0.2508,0,0,0.2394,0.2425,0.2444,0.2464,0.2498,0.2512,0.2521,0.2546,0.2554,0.2562,0.2557,0.2567,0.2555,0.256,0.2558,0.2577,0.2629,0.2571,0.2602,0.2691,0.2706,0.2718,0.2847,0.2872,0.257,0.257,0.257,0,0.2388,0.2419,0.2452,0.2471,0.2485,0.2513,0.2528,0.2542,0.2561,0.2577,0.2563,0.2588,0.2569,0.2597,0.2596,0.2584,0.2664,0.2585,0.2698,0.2712,0.2725,0.2854,0.288,0.2572,0.2571,0.2571,0.2571,0,0.2406,0.2425,0.2437,0.2469,0.2491,0.251,0.2537,0.2557,0.2566,0.2585,0.262,0.2617,0.2647,0.2627,0.261,0.2686,0.2726,0.2695,0.2693,0.2742,0.2874,0.2902,0.2573,0.2573,0.2573,0.2572,0,0,0.2396,0.2441,0.2441,0.2459,0.2492,0.2516,0.2535,0.2574,0.2621,0.2625,0.2695,0.2667,0.2704,0.2706,0.2704,0.2754,0.2903,0.2764,0.2768,0.2901,0.3158,0.3176,0.3207,0.2902,0.2906,0.2909,0.3227,0,0.2394,0.2423,0.2447,0.2472,0.2489,0.2523,0.2555,0.2596,0.2635,0.2713,0.2727,0.2793,0.2725,0.2774,0.2811,0.2894,0.2972,0.2823,0.3084,0.3093,0.3108,0.3237,0.3159,0.3435,0.3254,0.3258,0.3262,0,0.2388,0.2415,0.2436,0.2493,0.2509,0.2535,0.2616,0.2653,0.2752,0.2801,0.2866,0.2911,0.3004,0.2941,0.3117,0.3038,0.3106,0.315,0.3163,0.3191,0.316,0.3349,0.3491,0.3398,0.3304,0.33,0.3297,0,0.2356,0.24,0.242,0.2435,0.2508,0.2539,0.2589,0.2677,0.2746,0.289,0.2987,0.3081,0.3187,0.3265,0.3345,0.3269,0.3559,0.3468,0.3552,0.3556,0.3547,0.3542,0.3632,0.3606,0.3605,0.3604,0.3603,0,0.2334,0.2349,0.2416,0.2429,0.2493,0.2547,0.2639,0.271,0.2852,0.2972,0.3053,0.3185,0.3274,0.3428,0.346,0.3629,0.367,0.3615,0.365,0.3554,0.3546,0.3505,0.3439,0.3616,0.3613,0.3611,0.3609,0,0.23,0.2321,0.2365,0.245,0.2474,0.2532,0.2664,0.2757,0.2892,0.3069,0.3139,0.3332,0.355,0.3646,0.3827,0.3812,0.3857,0.3974,0.3877,0.3893,0.3832,0.3769,0.3771,0.366,0.4145,0.4147,0.415,0,0.2296,0.2308,0.2384,0.242,0.2462,0.255,0.2626,0.2759,0.2871,0.3148,0.3252,0.3517,0.3674,0.3977,0.4049,0.4201,0.3996,0.4182,0.3982,0.3875,0.3832,0.3602,0.3488,0.4007,0.4008,0.4009,0.4009,0,0.2323,0.234,0.2392,0.2444,0.2512,0.2583,0.2702,0.2778,0.2973,0.3139,0.3372,0.3521,0.385,0.3983,0.4192,0.4235,0.3994,0.4198,0.4112,0.3773,0.3508,0.3402,0.3775,0.4015,0.4014,0.4014,0.4013,0.4013,0.237,0.2388,0.2438,0.2486,0.255,0.2594,0.2629,0.2777,0.2923,0.3138,0.3354,0.3555,0.3848,0.4132,0.4153,0.4173,0.4062,0.4069,0.403,0.3826,0.3614,0.4021,0.4256,0.4257,0.4258,0.4259,0.4259,0,0.2404,0.2404,0.2472,0.2497,0.254,0.257,0.2668,0.2694,0.2811,0.3059,0.3248,0.3579,0.3759,0.3931,0.4114,0.4027,0.3764,0.3928,0.3577,0.349,0.392,0.3804,0.3921,0.3921,0.3921,0.3921,0.3921,0.3921,0.2417,0.2444,0.2446,0.2471,0.2485,0.2491,0.2507,0.2558,0.2687,0.2885,0.308,0.3287,0.3669,0.3959,0.3959,0.3867,0.3537,0.3436,0.3353,0.3661,0.3667,0.3673,0.3548,0.3608,0.3608,0.2773,0.2767,0.2763]},{"header":{"parameterUnit":"m.s-1","parameterCategory":2,"la1":30.2991,"la2":30.254,"lo1":-89.0895,"lo2":-89.0444,"dy":0.0017,"dx":0.0017,"nx":28,"ny":28,"refTime":"2024-05-23T03:00:00:Z","depth":"0","parameterNumber":3,"parameterNumberName":"V-component_of_CURRENTS"},"data":[0,0,0,0,0,0,0,0,0,0,0,0,0,0,0,0,0,0,0,0,0,0,0,0,0,0,0,0,0,0,0,0,0,0,0,0,0,0,0,0,0,0,0,0,0,0,0,0,0,0,0,0,0,0,0,0,0,0,0.0059,0.0058,0,-0.002,-0.002,-0.0021,-0.0055,-0.0055,-0.0055,-0.0055,-0.0174,-0.0177,-0.018,0,0,0,0,0,0,0,0,0,0,0,0,0,0.0146,0.0145,0.0059,0.0058,0.0057,-0.0019,-0.002,-0.0021,-0.0055,-0.0055,-0.0055,-0.0055,-0.0173,-0.0176,-0.018,0,0,0,0,0,0,0,0,0,0,0,0,0,0.0092,0.0144,0.006,0.0031,0.0027,-0.0019,-0.002,-0.0022,-0.0055,-0.0055,-0.0055,-0.0055,-0.0171,-0.0176,-0.0181,-0.0213,0,0,-0.0196,-0.0198,0,0,0,0,0,0,0,0,0.0096,0.0089,0.0036,0.0033,0.0029,-0.0028,-0.0033,-0.0088,-0.0055,-0.0023,-0.0055,-0.0055,-0.0129,-0.0137,-0.0151,-0.0219,-0.0224,-0.0196,-0.0199,-0.0201,-0.0202,0,0,0,0,0,0,0,0.0099,0.0092,0.0029,0.0035,0.003,0.001,0.0003,-0.0044,-0.0076,-0.0026,-0.0029,-0.0039,-0.0131,-0.0146,-0.0154,-0.0225,-0.0196,-0.02,-0.0203,-0.0205,-0.0323,-0.0323,0,0,0,0,0,0,0.0109,0.0096,0.0031,0.0026,0.0063,0.0008,0.0,-0.0009,-0.0075,-0.0085,-0.0039,-0.004,-0.0138,-0.0149,-0.0159,-0.0199,-0.0201,-0.0205,-0.0208,-0.0323,-0.0323,-0.0323,0,0,0,0,0,0,0.0112,0.0104,0.0034,0.0059,0.0049,0.0007,-0.0004,-0.0011,-0.0026,-0.0084,-0.0094,-0.0046,-0.0138,-0.0152,-0.0197,-0.0204,-0.0208,-0.0212,-0.0322,-0.0323,-0.0323,-0.0282,0,0,0,0,0,0,0.0114,0.0106,0.0101,0.006,0.0048,0.0011,-0.0004,-0.0013,-0.0032,-0.0035,-0.0094,-0.0105,-0.0139,-0.0189,-0.0202,-0.0211,-0.0216,-0.0322,-0.0323,-0.0323,-0.0283,-0.0281,-0.0279,0,0,0,0,0,0.0118,0.011,0.0102,0.0094,0.0043,0.0011,0.0003,-0.0026,-0.0033,-0.0039,-0.0077,-0.0103,-0.0201,-0.0194,-0.0208,-0.0219,-0.0322,-0.0322,-0.0323,-0.0284,-0.0282,-0.0279,0,0,0,0,0,0,0.0142,0.0105,0.0095,0.0075,0.0048,0.0005,-0.0006,-0.0024,-0.0059,-0.0061,-0.0111,-0.0125,-0.0169,-0.0198,-0.0189,-0.0253,-0.0264,-0.0268,-0.023,-0.0228,-0.0226,-0.019,-0.022,0,0,0,0,0,0.0147,0.0133,0.0096,0.0081,0.0071,0.0035,0.0018,-0.0001,-0.0037,-0.0052,-0.0093,-0.0137,-0.0183,-0.0206,-0.0251,-0.0288,-0.0289,-0.0302,-0.03,-0.0298,-0.0278,-0.0293,-0.029,-0.0325,-0.0325,-0.0325,0,0,0.0151,0.0129,0.012,0.0085,0.0063,0.0053,0.0025,0.0002,-0.0008,-0.0061,-0.0089,-0.0136,-0.0192,-0.0233,-0.0254,-0.0257,-0.0288,-0.0299,-0.0297,-0.0278,-0.0293,-0.0289,-0.0286,-0.0325,-0.0325,-0.0325,0,0,0.0162,0.0136,0.0135,0.0117,0.0087,0.0063,0.006,0.0021,0.0002,-0.0032,-0.0074,-0.012,-0.0185,-0.0226,-0.0255,-0.0269,-0.028,-0.0285,-0.0244,-0.0259,-0.0255,-0.0253,-0.0237,-0.0233,-0.028,-0.028,-0.028,0,0.0171,0.0167,0.0129,0.0128,0.0121,0.0074,0.0081,0.0048,-0.0002,-0.0007,-0.0033,-0.0116,-0.018,-0.0218,-0.023,-0.0265,-0.0256,-0.0249,-0.0254,-0.0251,-0.0249,-0.0234,-0.023,-0.0278,-0.0278,-0.0278,-0.0278,0,0.0189,0.0186,0.0183,0.017,0.0154,0.0148,0.0108,0.0089,0.0061,0.0037,-0.0003,-0.0084,-0.0118,-0.0164,-0.0208,-0.0225,-0.0218,-0.0252,-0.0254,-0.0243,-0.0228,-0.0225,-0.0275,-0.0276,-0.0276,-0.0277,0,0,0.0216,0.0202,0.0203,0.0219,0.0181,0.0178,0.0155,0.0138,0.0161,0.0084,0.0114,-0.0014,-0.0035,-0.0069,-0.0132,-0.0166,-0.0166,-0.0195,-0.0196,-0.0167,-0.0162,-0.0163,-0.0159,-0.0193,-0.0192,-0.0192,-0.0153,0,0.025,0.0272,0.0248,0.0272,0.0287,0.0244,0.0244,0.022,0.02,0.0215,0.0123,0.0122,-0.0004,0.0002,-0.0062,-0.0127,-0.0155,-0.017,-0.0187,-0.0187,-0.018,-0.0156,-0.0184,-0.0153,-0.015,-0.0149,-0.0149,0,0.0284,0.03,0.0339,0.0356,0.0361,0.0371,0.0393,0.0388,0.0377,0.0372,0.0338,0.0291,0.0225,0.0134,0.0012,0.0017,-0.0065,-0.0131,-0.0131,-0.014,-0.0182,-0.0168,-0.0147,-0.0377,-0.0144,-0.0144,-0.0145,0,0.0348,0.0362,0.0406,0.0409,0.0419,0.0442,0.045,0.0449,0.0501,0.0503,0.0574,0.0452,0.0466,0.031,0.0147,0.0098,0.0045,-0.0039,-0.0118,-0.0117,-0.0148,-0.0151,-0.0341,-0.0109,-0.0109,-0.0109,-0.0109,0,0.0401,0.0436,0.0452,0.048,0.0564,0.0534,0.0636,0.0627,0.0689,0.081,0.0686,0.0768,0.0516,0.0448,0.0243,0.0095,0.0118,-0.0088,-0.0106,-0.0134,-0.0137,-0.0344,-0.0451,-0.0108,-0.0108,-0.0108,-0.0108,0,0.0491,0.0475,0.0547,0.0583,0.0605,0.0679,0.0785,0.0881,0.0904,0.1074,0.1102,0.1044,0.0945,0.0696,0.0484,0.0273,-0.0026,0.0035,0.0035,0.0014,-0.031,-0.041,-0.0554,-0.0656,-0.0051,-0.0051,-0.0051,0,0.055,0.0598,0.0664,0.0732,0.0766,0.0868,0.0968,0.0999,0.1123,0.126,0.1374,0.133,0.1325,0.1001,0.0601,0.0269,0.0034,0.0039,-0.0095,-0.0312,-0.0438,-0.0522,-0.0604,-0.0113,-0.0114,-0.0114,-0.0114,0,0.0715,0.0736,0.0811,0.0936,0.1043,0.1161,0.1298,0.1415,0.1505,0.1647,0.1804,0.1809,0.1499,0.114,0.0674,0.0402,-0.0129,0.0024,-0.0215,-0.0503,-0.0591,-0.0702,-0.0136,-0.0117,-0.0116,-0.0116,-0.0116,-0.0116,0.0881,0.0962,0.1059,0.1175,0.13,0.1446,0.1555,0.172,0.1919,0.2122,0.2115,0.2151,0.1612,0.0949,0.0576,-0.0146,-0.0133,-0.039,-0.0487,-0.0546,-0.0678,-0.0096,-0.0098,-0.0097,-0.0097,-0.0097,-0.0097,0,0.1074,0.1144,0.129,0.1415,0.1567,0.1577,0.1782,0.19,0.2134,0.2314,0.2432,0.2167,0.1527,0.0842,-0.0099,-0.0579,-0.0789,-0.0847,-0.1015,-0.1073,-0.0572,-0.0614,-0.0712,-0.0712,-0.0712,-0.0711,-0.0711,-0.0711,0.119,0.1333,0.1372,0.1623,0.1716,0.1895,0.1993,0.2179,0.2314,0.2492,0.2493,0.2463,0.1917,0.03,-0.0839,-0.1114,-0.143,-0.1486,-0.1629,-0.1351,-0.1318,-0.1286,-0.1357,-0.1608,-0.1609,-0.2121,-0.2127,-0.2131]}],[{"header":{"parameterUnit":"m.s-1","parameterCategory":2,"la1":30.2991,"la2":30.254,"lo1":-89.0895,"lo2":-89.0444,"dy":0.0017,"dx":0.0017,"nx":28,"ny":28,"refTime":"2024-05-23T03:00:00:Z","depth":"2","parameterNumber":2,"parameterNumberName":"U-component_of_CURRENTS"},"data":[0,0,0,0,0,0,0,0,0,0,0,0,0,0,0,0,0,0,0,0,0,0,0,0,0,0,0,0,0,0,0,0,0,0,0,0,0,0,0,0,0,0,0,0,0,0,0,0,0,0,0,0,0,0,0,0,0,0,0.2185,0.2186,0,0.2253,0.2253,0.2254,0.2278,0.2278,0.2278,0.2278,0.2267,0.2267,0.2267,0,0,0,0,0,0,0,0,0,0,0,0,0,0.2079,0.208,0.2185,0.2186,0.2187,0.2253,0.2253,0.2254,0.2278,0.2278,0.2278,0.2278,0.2267,0.2267,0.2267,0,0,0,0,0,0,0,0,0,0,0,0,0,0.2131,0.2081,0.2185,0.2209,0.2212,0.2253,0.2253,0.2254,0.2278,0.2278,0.2278,0.2278,0.2267,0.2267,0.2267,0.2265,0,0,0.2265,0.2265,0,0,0,0,0,0,0,0,0.2128,0.2135,0.2204,0.2207,0.2211,0.2259,0.2212,0.2255,0.2278,0.225,0.2278,0.2278,0.2259,0.2259,0.227,0.2264,0.2264,0.2265,0.2265,0.2265,0.2265,0,0,0,0,0,0,0,0.2125,0.2132,0.2209,0.2205,0.2209,0.2217,0.2224,0.2221,0.2251,0.2253,0.2255,0.2267,0.226,0.227,0.2269,0.2264,0.2265,0.2265,0.2265,0.2265,0.2315,0.2316,0,0,0,0,0,0,0.2121,0.2129,0.2207,0.2212,0.2171,0.2219,0.2227,0.2242,0.2252,0.2255,0.2267,0.2268,0.2271,0.227,0.2269,0.2309,0.2265,0.2265,0.2264,0.2313,0.2315,0.2317,0,0,0,0,0,0,0.2119,0.2128,0.2204,0.2173,0.2184,0.2221,0.2237,0.2243,0.2263,0.2264,0.2265,0.2282,0.2271,0.227,0.2288,0.2307,0.2264,0.2264,0.2311,0.2314,0.2316,0.2363,0,0,0,0,0,0,0.2115,0.2126,0.2151,0.2173,0.2186,0.2237,0.2238,0.2244,0.2271,0.2273,0.2277,0.2276,0.2271,0.2289,0.2287,0.2306,0.2264,0.2309,0.2312,0.2315,0.2359,0.2366,0.2372,0,0,0,0,0,0.2111,0.2156,0.2152,0.2162,0.2213,0.2238,0.2245,0.227,0.2271,0.2286,0.2297,0.2276,0.2306,0.229,0.2288,0.2307,0.2308,0.2311,0.2315,0.2356,0.2365,0.2372,0,0,0,0,0,0,0.2129,0.2163,0.2159,0.2212,0.2222,0.2243,0.2281,0.2275,0.2296,0.2307,0.2293,0.2293,0.232,0.2309,0.229,0.2333,0.2305,0.2308,0.2337,0.2345,0.2352,0.2359,0.2263,0,0,0,0,0,0.214,0.2185,0.2192,0.2237,0.2247,0.2258,0.2277,0.2283,0.2299,0.231,0.231,0.232,0.2332,0.2335,0.2345,0.236,0.2389,0.2374,0.2381,0.2386,0.2393,0.247,0.2484,0.2328,0.2328,0.2328,0,0,0.2166,0.2188,0.2216,0.2245,0.2263,0.2275,0.227,0.2307,0.2316,0.2304,0.2334,0.2344,0.2344,0.2372,0.2382,0.2363,0.2449,0.2391,0.2395,0.2399,0.2475,0.249,0.2504,0.233,0.233,0.233,0,0,0.2213,0.225,0.2283,0.2288,0.2311,0.2318,0.2324,0.234,0.2354,0.2374,0.2377,0.2401,0.2409,0.2421,0.2424,0.2472,0.2487,0.2475,0.2507,0.2582,0.2595,0.2607,0.2677,0.2696,0.2472,0.2473,0.2473,0,0.2239,0.2263,0.2296,0.2306,0.2314,0.2331,0.2336,0.2359,0.2378,0.2394,0.2392,0.2438,0.2434,0.2469,0.2491,0.2485,0.2535,0.2473,0.2591,0.2604,0.2615,0.2684,0.2703,0.2475,0.2475,0.2475,0.2474,0,0.2276,0.2295,0.232,0.2334,0.2351,0.237,0.2383,0.2411,0.2427,0.2442,0.2489,0.2501,0.253,0.2531,0.2523,0.2599,0.2612,0.2596,0.257,0.2634,0.2702,0.2722,0.2479,0.2478,0.2477,0.2477,0,0,0.2304,0.2338,0.2335,0.2337,0.2358,0.2374,0.241,0.2438,0.2481,0.2504,0.2556,0.2575,0.26,0.2607,0.2608,0.2659,0.2783,0.2667,0.267,0.2736,0.2966,0.2897,0.2911,0.2799,0.2803,0.2805,0.2985,0,0.2304,0.2318,0.2337,0.2353,0.2356,0.2385,0.2424,0.2463,0.2506,0.2574,0.2599,0.2658,0.2624,0.266,0.2707,0.2779,0.2835,0.2736,0.2895,0.2899,0.2829,0.2931,0.2729,0.2865,0.3004,0.3007,0.3009,0,0.2287,0.2306,0.2312,0.2353,0.2363,0.2389,0.2457,0.2496,0.2593,0.264,0.27,0.2736,0.2821,0.2784,0.2932,0.2881,0.2929,0.2967,0.2975,0.2905,0.2865,0.2821,0.2895,0.3042,0.3039,0.3037,0.3034,0,0.2242,0.2272,0.228,0.2286,0.235,0.238,0.2428,0.2515,0.2585,0.2699,0.2778,0.2859,0.2943,0.3011,0.3078,0.3036,0.3246,0.3194,0.3168,0.3164,0.3018,0.2994,0.3295,0.3295,0.3295,0.3294,0.3294,0,0.2204,0.2209,0.2269,0.2273,0.2321,0.2374,0.246,0.2521,0.2657,0.277,0.2822,0.2921,0.3012,0.3122,0.315,0.3237,0.3311,0.3204,0.3216,0.3028,0.3005,0.3164,0.3146,0.3301,0.3299,0.3298,0.3297,0,0.2153,0.2175,0.2197,0.2271,0.2296,0.2339,0.2483,0.2564,0.2692,0.2845,0.2896,0.3037,0.3175,0.324,0.338,0.3345,0.3415,0.3413,0.3183,0.3162,0.3266,0.3249,0.3423,0.3422,0.3421,0.3421,0.342,0,0.2131,0.2138,0.2192,0.2222,0.2262,0.2348,0.2419,0.256,0.2654,0.2905,0.2972,0.3154,0.3235,0.3398,0.34,0.3453,0.3459,0.3261,0.3115,0.3291,0.3285,0.3269,0.3253,0.2956,0.2952,0.2948,0.2946,0,0.2118,0.2134,0.2163,0.2219,0.2281,0.2338,0.2448,0.2513,0.2707,0.2826,0.2984,0.3074,0.3266,0.3218,0.3288,0.3271,0.3231,0.3191,0.3485,0.2933,0.2859,0.285,0.2849,0.2915,0.2918,0.292,0.2922,0.2923,0.2117,0.213,0.217,0.2201,0.2272,0.2286,0.2306,0.2411,0.2503,0.264,0.2842,0.2915,0.3027,0.3005,0.2962,0.2938,0.3119,0.2976,0.2984,0.2996,0.2888,0.2814,0.2843,0.2845,0.2848,0.285,0.2851,0,0.2079,0.2103,0.2153,0.2152,0.2169,0.2242,0.2297,0.2278,0.2286,0.2481,0.2576,0.2472,0.25,0.2613,0.2554,0.2568,0.2509,0.2455,0.2364,0.24,0.243,0.2287,0.2087,0.2084,0.208,0.2078,0,0,0.2068,0.2053,0.2039,0.2007,0.2049,0.2034,0.203,0.1992,0.2074,0.206,0.2128,0.2369,0.2558,0.2267,0.2268,0.2176,0.2253,0.2099,0.273,0.2661,0.2687,0.2771,0.2598,0,0,0,0,0]},{"header":{"parameterUnit":"m.s-1","parameterCategory":2,"la1":30.2991,"la2":30.254,"lo1":-89.0895,"lo2":-89.0444,"dy":0.0017,"dx":0.0017,"nx":28,"ny":28,"refTime":"2024-05-23T03:00:00:Z","depth":"2","parameterNumber":3,"parameterNumberName":"V-component_of_CURRENTS"},"data":[0,0,0,0,0,0,0,0,0,0,0,0,0,0,0,0,0,0,0,0,0,0,0,0,0,0,0,0,0,0,0,0,0,0,0,0,0,0,0,0,0,0,0,0,0,0,0,0,0,0,0,0,0,0,0,0,0,0,-0.0094,-0.0095,0,-0.0159,-0.016,-0.0161,-0.02,-0.0201,-0.0201,-0.0201,-0.0314,-0.0317,-0.032,0,0,0,0,0,0,0,0,0,0,0,0,0,-0.0047,-0.0047,-0.0094,-0.0095,-0.0096,-0.0159,-0.016,-0.0161,-0.02,-0.0201,-0.0201,-0.0201,-0.0313,-0.0317,-0.032,0,0,0,0,0,0,0,0,0,0,0,0,0,-0.0085,-0.0047,-0.0094,-0.0123,-0.0126,-0.0159,-0.016,-0.0161,-0.02,-0.0201,-0.0201,-0.0201,-0.0312,-0.0316,-0.032,-0.034,0,0,-0.0333,-0.0335,0,0,0,0,0,0,0,0,-0.0082,-0.0086,-0.0118,-0.0121,-0.0125,-0.0172,-0.0185,-0.0223,-0.02,-0.0172,-0.0201,-0.0201,-0.0271,-0.0279,-0.0289,-0.0345,-0.035,-0.0334,-0.0336,-0.0338,-0.0339,0,0,0,0,0,0,0,-0.008,-0.0084,-0.012,-0.0119,-0.0123,-0.0148,-0.0153,-0.0192,-0.022,-0.0175,-0.0178,-0.0185,-0.0273,-0.0285,-0.0292,-0.0352,-0.0334,-0.0337,-0.034,-0.0342,-0.0443,-0.0443,0,0,0,0,0,0,-0.0069,-0.0081,-0.0118,-0.0122,-0.0104,-0.0148,-0.0154,-0.0156,-0.0218,-0.0228,-0.0185,-0.0187,-0.0278,-0.0287,-0.0297,-0.0333,-0.0338,-0.0342,-0.0344,-0.0442,-0.0443,-0.0443,0,0,0,0,0,0,-0.0068,-0.0072,-0.0115,-0.0103,-0.0111,-0.0148,-0.0151,-0.0158,-0.017,-0.0226,-0.0236,-0.019,-0.0278,-0.0291,-0.0332,-0.0338,-0.0344,-0.0348,-0.0442,-0.0443,-0.0443,-0.0401,0,0,0,0,0,0,-0.0066,-0.0071,-0.0069,-0.0102,-0.0111,-0.0129,-0.0151,-0.0159,-0.0174,-0.0177,-0.0233,-0.0244,-0.0279,-0.0325,-0.0336,-0.0344,-0.0351,-0.0442,-0.0442,-0.0443,-0.0402,-0.04,-0.0398,0,0,0,0,0,-0.0064,-0.0062,-0.0068,-0.0073,-0.0107,-0.0129,-0.0135,-0.0164,-0.0174,-0.0176,-0.0217,-0.0242,-0.0335,-0.0329,-0.0342,-0.035,-0.0442,-0.0442,-0.0443,-0.0403,-0.04,-0.0398,0,0,0,0,0,0,-0.0041,-0.0066,-0.0074,-0.0079,-0.0099,-0.0136,-0.0142,-0.0159,-0.0192,-0.0197,-0.0247,-0.0261,-0.0301,-0.0329,-0.0321,-0.038,-0.0392,-0.0395,-0.0358,-0.0355,-0.0353,-0.0319,-0.0354,0,0,0,0,0,-0.0033,-0.004,-0.0065,-0.007,-0.0075,-0.0106,-0.0119,-0.0137,-0.017,-0.0184,-0.0224,-0.0268,-0.0311,-0.0335,-0.0376,-0.0407,-0.0421,-0.042,-0.0418,-0.0416,-0.0396,-0.0427,-0.0425,-0.0444,-0.0444,-0.0444,0,0,-0.0027,-0.0042,-0.0046,-0.0066,-0.0083,-0.0085,-0.0114,-0.013,-0.0138,-0.0193,-0.0218,-0.0264,-0.0318,-0.0356,-0.0375,-0.038,-0.0419,-0.0416,-0.0414,-0.0395,-0.0427,-0.0425,-0.0423,-0.0444,-0.0444,-0.0444,0,0,-0.0012,-0.0027,-0.0021,-0.0033,-0.0054,-0.0074,-0.0074,-0.0106,-0.0124,-0.0154,-0.0198,-0.0243,-0.0302,-0.0344,-0.0373,-0.0382,-0.0407,-0.0396,-0.0358,-0.0388,-0.0386,-0.0385,-0.0401,-0.0401,-0.0394,-0.0394,-0.0394,0,0.0,0.0005,-0.0024,-0.0019,-0.0022,-0.0062,-0.005,-0.0078,-0.0122,-0.0129,-0.0155,-0.0238,-0.0296,-0.0336,-0.0345,-0.0377,-0.0387,-0.0364,-0.0384,-0.0383,-0.0382,-0.0398,-0.0399,-0.0392,-0.0392,-0.0392,-0.0392,0,0.0024,0.0028,0.003,0.0026,0.0016,0.0017,-0.0016,-0.0032,-0.006,-0.0084,-0.0124,-0.0201,-0.0241,-0.028,-0.0319,-0.0344,-0.0351,-0.0378,-0.0386,-0.0377,-0.0396,-0.0397,-0.0389,-0.039,-0.039,-0.0391,0,0,0.0057,0.0051,0.0054,0.0067,0.0044,0.0043,0.0028,0.0015,0.0025,-0.0039,-0.003,-0.0133,-0.0161,-0.0194,-0.0255,-0.0293,-0.0318,-0.0326,-0.0328,-0.0332,-0.0365,-0.0414,-0.042,-0.0344,-0.0344,-0.0344,-0.038,0,0.0091,0.0119,0.0101,0.0127,0.0144,0.0109,0.0108,0.0085,0.0062,0.0056,-0.0027,-0.0049,-0.0133,-0.0147,-0.0201,-0.0279,-0.0319,-0.0304,-0.0381,-0.0382,-0.0419,-0.0423,-0.0384,-0.0416,-0.0382,-0.0382,-0.0382,0,0.0131,0.0145,0.0186,0.0196,0.0202,0.0211,0.0221,0.0214,0.0187,0.0172,0.0134,0.0078,0.0011,-0.006,-0.0184,-0.0164,-0.0256,-0.0327,-0.033,-0.0386,-0.0434,-0.0421,-0.042,-0.0385,-0.0385,-0.0385,-0.0385,0,0.0184,0.0204,0.0244,0.0248,0.0253,0.027,0.0271,0.026,0.0287,0.026,0.0286,0.0186,0.0162,0.0032,-0.0131,-0.0147,-0.0259,-0.0303,-0.0433,-0.0437,-0.0423,-0.0426,-0.039,-0.039,-0.039,-0.0389,-0.0389,0,0.0231,0.0261,0.028,0.0301,0.0359,0.0339,0.0401,0.0386,0.0411,0.047,0.0362,0.0383,0.0186,0.0091,-0.0075,-0.0252,-0.022,-0.0418,-0.0451,-0.041,-0.0411,-0.0401,-0.0401,-0.0391,-0.0391,-0.039,-0.039,0,0.0287,0.0292,0.0341,0.0369,0.0389,0.0432,0.0498,0.0552,0.0555,0.0634,0.0637,0.0552,0.0415,0.0204,-0.0002,-0.0164,-0.0343,-0.042,-0.0355,-0.0382,-0.0511,-0.051,-0.0554,-0.0556,-0.0558,-0.0559,-0.0561,0,0.0312,0.0351,0.0406,0.0446,0.0467,0.0536,0.0598,0.0626,0.068,0.0742,0.0778,0.0686,0.0612,0.0283,-0.0025,-0.0319,-0.0361,-0.0473,-0.052,-0.0501,-0.0529,-0.0524,-0.052,-0.0479,-0.048,-0.048,-0.048,0,0.0365,0.0391,0.0432,0.0536,0.0608,0.0677,0.0751,0.0811,0.0863,0.0912,0.0942,0.0903,0.0631,0.033,-0.0067,-0.0266,-0.0428,-0.0492,-0.0473,-0.0456,-0.0437,-0.0463,-0.046,-0.0484,-0.0483,-0.0483,-0.0483,-0.0483,0.0396,0.0441,0.051,0.0588,0.0686,0.0757,0.0834,0.0898,0.097,0.105,0.1033,0.1011,0.0725,0.021,-0.0124,-0.0461,-0.047,-0.0582,-0.0578,-0.0573,-0.0571,-0.0557,-0.0624,-0.0625,-0.0625,-0.0626,-0.0626,0,0.0417,0.0462,0.0549,0.0609,0.071,0.0794,0.0899,0.098,0.104,0.1135,0.115,0.0915,0.0592,0.0286,-0.0214,-0.0541,-0.0549,-0.063,-0.0559,-0.0554,-0.055,-0.0544,-0.0592,-0.0593,-0.0593,-0.0594,0,0,0.0416,0.0467,0.0485,0.0579,0.0687,0.0859,0.0943,0.105,0.1136,0.1185,0.1204,0.1151,0.0765,0.0407,-0.003,-0.0293,-0.0347,-0.0351,-0.0348,-0.0209,-0.02,-0.0499,-0.0482,0,0,0,0,0]}],[{"header":{"parameterUnit":"m.s-1","parameterCategory":2,"la1":30.2991,"la2":30.254,"lo1":-89.0895,"lo2":-89.0444,"dy":0.0017,"dx":0.0017,"nx":28,"ny":28,"refTime":"2024-05-23T03:00:00:Z","depth":"4","parameterNumber":2,"parameterNumberName":"U-component_of_CURRENTS"},"data":[0,0,0,0,0,0,0,0,0,0,0,0,0,0,0,0,0,0,0,0,0,0,0,0,0,0,0,0,0,0,0,0,0,0,0,0,0,0,0,0,0,0,0,0,0,0,0,0,0,0,0,0,0,0,0,0,0,0,0.1216,0.1217,0,0.1289,0.129,0.129,0.1346,0.1346,0.1347,0.1348,0.1439,0.1441,0.1443,0,0,0,0,0,0,0,0,0,0,0,0,0,0.1127,0.1128,0.1216,0.1217,0.1218,0.1289,0.129,0.1291,0.1346,0.1346,0.1347,0.1348,0.1439,0.1441,0.1443,0,0,0,0,0,0,0,0,0,0,0,0,0,0.1178,0.1129,0.1216,0.1255,0.1259,0.1289,0.129,0.1291,0.1346,0.1346,0.1347,0.1348,0.1438,0.1441,0.1444,0.1443,0,0,0.1452,0.1453,0,0,0,0,0,0,0,0,0.1175,0.1181,0.1248,0.1252,0.1257,0.131,0.1292,0.1343,0.1345,0.1312,0.1348,0.1349,0.1398,0.1404,0.1414,0.1447,0.1451,0.1452,0.1454,0.1455,0.1456,0,0,0,0,0,0,0,0.1172,0.1179,0.1244,0.1249,0.1255,0.127,0.1278,0.1302,0.1348,0.1315,0.1319,0.1329,0.1401,0.1411,0.1417,0.1452,0.1452,0.1455,0.1457,0.1458,0.1564,0.1565,0,0,0,0,0,0,0.1164,0.1175,0.1242,0.1246,0.1219,0.127,0.128,0.1291,0.1348,0.1358,0.1328,0.1331,0.1406,0.1413,0.142,0.1502,0.1455,0.1458,0.146,0.1563,0.1564,0.1565,0,0,0,0,0,0,0.1162,0.1169,0.1239,0.1213,0.1223,0.1271,0.1284,0.1292,0.1337,0.1358,0.1368,0.1368,0.1407,0.1416,0.1465,0.1503,0.1459,0.1462,0.1562,0.1563,0.1565,0.1614,0,0,0,0,0,0,0.1159,0.1168,0.1179,0.1213,0.1224,0.1269,0.1283,0.1293,0.134,0.1346,0.1395,0.1402,0.1408,0.1461,0.1468,0.1506,0.1464,0.156,0.1562,0.1564,0.1611,0.1617,0.1622,0,0,0,0,0,0.1155,0.115,0.1179,0.1188,0.1236,0.127,0.1278,0.1314,0.1341,0.1359,0.1396,0.1403,0.1479,0.1464,0.1472,0.1512,0.1559,0.1562,0.1564,0.1608,0.1615,0.1622,0,0,0,0,0,0,0.1111,0.1157,0.1189,0.1199,0.1244,0.128,0.1296,0.1333,0.1376,0.139,0.1417,0.1426,0.1484,0.1487,0.147,0.1547,0.1521,0.1525,0.1551,0.1559,0.1564,0.1574,0.1466,0,0,0,0,0,0.111,0.1124,0.1177,0.119,0.1215,0.1268,0.1291,0.1323,0.1362,0.1384,0.1421,0.1457,0.1494,0.1519,0.1543,0.1586,0.1602,0.1616,0.1622,0.1627,0.164,0.1681,0.1692,0.1574,0.1574,0.1574,0,0,0.1094,0.1124,0.1132,0.1183,0.1222,0.1266,0.1285,0.1326,0.137,0.1386,0.1453,0.1481,0.151,0.1557,0.1584,0.157,0.1671,0.163,0.1634,0.1645,0.1685,0.1697,0.1707,0.1576,0.1575,0.1575,0,0,0.1074,0.1106,0.1123,0.1167,0.1233,0.1267,0.129,0.1352,0.1388,0.1451,0.1476,0.1526,0.1582,0.1608,0.1629,0.1682,0.17,0.1696,0.1738,0.1778,0.1788,0.1798,0.1844,0.1857,0.1699,0.1699,0.1699,0,0.1057,0.1101,0.1132,0.1174,0.122,0.1277,0.1327,0.1363,0.1434,0.1471,0.1479,0.1586,0.1607,0.1676,0.1697,0.1697,0.1727,0.171,0.1787,0.1796,0.1804,0.185,0.1864,0.1702,0.1701,0.1701,0.1701,0,0.107,0.1116,0.1131,0.1212,0.1256,0.1304,0.137,0.1417,0.1474,0.1521,0.1609,0.164,0.1707,0.1721,0.1731,0.1808,0.1813,0.1789,0.177,0.182,0.1864,0.1878,0.1705,0.1704,0.1704,0.1703,0,0,0.1012,0.112,0.1134,0.1192,0.129,0.1328,0.1397,0.1482,0.1545,0.1606,0.169,0.1752,0.1785,0.181,0.183,0.1866,0.1953,0.1864,0.1865,0.1912,0.2063,0.1945,0.1948,0.1949,0.1951,0.1953,0.2074,0,0.1029,0.1116,0.1167,0.1261,0.1319,0.1393,0.1455,0.1533,0.1605,0.1688,0.1738,0.1823,0.1814,0.1865,0.1899,0.1952,0.199,0.1924,0.2006,0.2009,0.1899,0.1959,0.196,0.2084,0.2087,0.2089,0.209,0,0.1045,0.1105,0.1204,0.1315,0.1348,0.1408,0.1535,0.1601,0.171,0.1766,0.185,0.1899,0.1992,0.1959,0.2072,0.2038,0.2059,0.2079,0.2083,0.1965,0.1915,0.202,0.2114,0.2113,0.2111,0.2109,0.2108,0,0.1015,0.1133,0.1219,0.1263,0.1389,0.1445,0.1519,0.1634,0.1698,0.1835,0.19,0.2,0.2076,0.212,0.2167,0.2142,0.2269,0.2231,0.214,0.2133,0.2182,0.217,0.229,0.229,0.229,0.2289,0.2289,0,0.1017,0.1082,0.1218,0.1261,0.1359,0.1455,0.1561,0.1641,0.176,0.1842,0.1949,0.2021,0.2123,0.2198,0.2213,0.2227,0.2309,0.2167,0.2158,0.22,0.2189,0.2192,0.2179,0.2294,0.2293,0.2292,0.2291,0,0.0971,0.1064,0.1161,0.1302,0.1349,0.1426,0.1567,0.163,0.1766,0.1877,0.1928,0.2078,0.2193,0.2261,0.2352,0.2285,0.2306,0.2277,0.2346,0.2336,0.2137,0.2125,0.2209,0.2206,0.2203,0.2201,0.2199,0,0.0961,0.1007,0.1172,0.1223,0.1291,0.1409,0.1474,0.1617,0.1677,0.189,0.1921,0.2097,0.2179,0.2222,0.2298,0.2334,0.2289,0.2284,0.2182,0.2147,0.213,0.2123,0.2115,0.2195,0.2194,0.2194,0.2193,0,0.0916,0.0986,0.1054,0.116,0.1244,0.1337,0.1441,0.1475,0.1643,0.1779,0.1882,0.1962,0.2086,0.216,0.2202,0.2209,0.2282,0.2255,0.226,0.2164,0.2131,0.2115,0.211,0.2184,0.2185,0.2186,0.2186,0,0.0869,0.0903,0.0989,0.1076,0.1167,0.1229,0.1311,0.139,0.1474,0.1693,0.1729,0.1916,0.2066,0.2097,0.2134,0.2144,0.2109,0.202,0.2036,0.2047,0.1935,0.1865,0.1845,0,0,0,0,0,0.082,0.0831,0.0894,0.0977,0.106,0.1123,0.1258,0.134,0.1504,0.1531,0.1623,0.173,0.1837,0.1932,0.1911,0.2066,0.2109,0.2032,0.2011,0.2133,0.2143,0.2025,0,0,0,0,0,0,0.077,0.0814,0.085,0.0868,0.0905,0.0991,0.1079,0.1206,0.1225,0.1404,0.147,0.1612,0.1735,0.1823,0.1871,0.1898,0.1848,0.2144,0.2139,0.2127,0.2136,0.2145,0.2027,0,0,0,0,0]},{"header":{"parameterUnit":"m.s-1","parameterCategory":2,"la1":30.2991,"la2":30.254,"lo1":-89.0895,"lo2":-89.0444,"dy":0.0017,"dx":0.0017,"nx":28,"ny":28,"refTime":"2024-05-23T03:00:00:Z","depth":"4","parameterNumber":3,"parameterNumberName":"V-component_of_CURRENTS"},"data":[0,0,0,0,0,0,0,0,0,0,0,0,0,0,0,0,0,0,0,0,0,0,0,0,0,0,0,0,0,0,0,0,0,0,0,0,0,0,0,0,0,0,0,0,0,0,0,0,0,0,0,0,0,0,0,0,0,0,0.0026,0.0025,0,-0.0015,-0.0015,-0.0016,-0.0062,-0.0062,-0.0063,-0.0063,-0.0159,-0.0161,-0.0163,0,0,0,0,0,0,0,0,0,0,0,0,0,0.0008,0.0009,0.0026,0.0025,0.0025,-0.0015,-0.0015,-0.0016,-0.0062,-0.0062,-0.0063,-0.0064,-0.0159,-0.0161,-0.0163,0,0,0,0,0,0,0,0,0,0,0,0,0,-0.0004,0.001,0.0026,-0.0002,-0.0005,-0.0014,-0.0015,-0.0016,-0.0061,-0.0062,-0.0063,-0.0064,-0.0158,-0.0161,-0.0164,-0.0164,0,0,-0.0173,-0.0174,0,0,0,0,0,0,0,0,-0.0003,-0.0003,0.0003,-0.0,-0.0003,-0.0033,-0.0056,-0.0068,-0.0061,-0.0041,-0.0063,-0.0064,-0.0121,-0.0127,-0.0133,-0.0168,-0.0172,-0.0173,-0.0175,-0.0176,-0.0177,0,0,0,0,0,0,0,-0.0002,-0.0002,0.0009,0.0002,-0.0001,-0.0031,-0.0034,-0.0059,-0.0077,-0.0043,-0.0046,-0.0049,-0.0123,-0.013,-0.0136,-0.0174,-0.0173,-0.0176,-0.0177,-0.0179,-0.0226,-0.0225,0,0,0,0,0,0,0.0009,-0.0001,0.001,0.0008,-0.0004,-0.003,-0.0033,-0.0023,-0.0076,-0.0084,-0.0048,-0.0051,-0.0124,-0.0132,-0.0139,-0.0148,-0.0176,-0.0179,-0.0181,-0.0226,-0.0226,-0.0225,0,0,0,0,0,0,0.0009,0.0011,0.0012,0.0002,0.0,-0.0028,-0.0018,-0.0024,-0.0035,-0.0079,-0.0088,-0.0054,-0.0125,-0.0135,-0.016,-0.0152,-0.018,-0.0183,-0.0227,-0.0226,-0.0225,-0.0163,0,0,0,0,0,0,0.0009,0.0011,0.0021,0.0004,0.0001,0.0015,-0.0017,-0.0024,-0.0035,-0.0039,-0.0087,-0.0096,-0.0127,-0.0155,-0.0163,-0.0157,-0.0185,-0.0228,-0.0227,-0.0226,-0.0165,-0.016,-0.0155,0,0,0,0,0,0.0009,0.004,0.0022,0.0023,0.0016,0.0016,0.0012,-0.0013,-0.0034,-0.0029,-0.0065,-0.0095,-0.0154,-0.0157,-0.0166,-0.0161,-0.0228,-0.0227,-0.0226,-0.0168,-0.0161,-0.0155,0,0,0,0,0,0,0.0042,0.0037,0.0017,0.0045,0.0029,0.0008,0.0014,-0.001,-0.0033,-0.0041,-0.0089,-0.01,-0.0121,-0.0146,-0.0148,-0.0171,-0.0196,-0.0196,-0.0148,-0.0143,-0.0137,-0.0137,-0.0188,0,0,0,0,0,0.0052,0.0073,0.0052,0.0074,0.0067,0.0037,0.0031,0.0013,-0.0009,-0.0021,-0.0056,-0.0092,-0.0121,-0.0136,-0.0165,-0.0175,-0.0218,-0.0177,-0.0172,-0.0167,-0.0173,-0.0224,-0.0224,-0.0221,-0.0221,-0.0221,0,0,0.0073,0.0072,0.0083,0.0081,0.0066,0.0063,0.0032,0.0032,0.0025,-0.0028,-0.0044,-0.0078,-0.0121,-0.0134,-0.0145,-0.0155,-0.019,-0.0166,-0.0161,-0.017,-0.0223,-0.0223,-0.0224,-0.022,-0.0221,-0.0221,0,0,0.0117,0.0119,0.0139,0.0128,0.0111,0.0093,0.0093,0.0068,0.0053,0.0034,-0.0007,-0.0033,-0.0075,-0.0101,-0.0121,-0.0104,-0.0164,-0.0114,-0.0085,-0.0134,-0.0135,-0.0136,-0.019,-0.0197,-0.0107,-0.0107,-0.0107,0,0.0137,0.0151,0.0145,0.0149,0.014,0.0107,0.0109,0.0097,0.0066,0.0051,0.0037,-0.0032,-0.006,-0.0088,-0.0079,-0.0092,-0.0137,-0.0104,-0.0128,-0.013,-0.0132,-0.0188,-0.0196,-0.0104,-0.0104,-0.0104,-0.0105,0,0.0176,0.0183,0.0196,0.0187,0.0183,0.0184,0.0159,0.015,0.0124,0.0099,0.0065,0.0026,-0.0018,-0.0023,-0.0046,-0.0074,-0.0105,-0.0118,-0.0143,-0.0129,-0.0188,-0.0198,-0.0099,-0.01,-0.0101,-0.0102,0,0,0.0222,0.0222,0.0221,0.0213,0.0196,0.0196,0.0194,0.0172,0.016,0.013,0.0105,0.007,0.0039,0.0014,-0.0018,-0.005,-0.0096,-0.0086,-0.0091,-0.014,-0.0217,-0.0206,-0.0216,-0.0118,-0.012,-0.0121,-0.0251,0,0.024,0.0256,0.025,0.0254,0.0251,0.0227,0.0225,0.0206,0.0181,0.0154,0.0111,0.0079,0.0056,0.0035,-0.0001,-0.0078,-0.012,-0.006,-0.0224,-0.0229,-0.0221,-0.0226,-0.0125,-0.0258,-0.0261,-0.0262,-0.0264,0,0.0255,0.0265,0.0275,0.0269,0.0266,0.0269,0.0249,0.0244,0.0208,0.0186,0.0146,0.0105,0.0053,0.0035,-0.0093,-0.0059,-0.0133,-0.0189,-0.0196,-0.0216,-0.0236,-0.0277,-0.0282,-0.0281,-0.0279,-0.0278,-0.0277,0,0.026,0.0272,0.028,0.0277,0.0275,0.0277,0.0274,0.0251,0.0243,0.0204,0.0184,0.0113,0.0072,-0.0028,-0.0137,-0.0125,-0.0287,-0.0285,-0.0349,-0.035,-0.035,-0.0347,-0.038,-0.038,-0.0379,-0.0379,-0.0379,0,0.0263,0.0264,0.0287,0.0287,0.0298,0.0294,0.0295,0.0282,0.0262,0.0251,0.02,0.0173,0.0054,-0.0046,-0.0148,-0.0283,-0.0303,-0.0353,-0.0382,-0.0319,-0.0312,-0.0357,-0.0353,-0.0384,-0.0383,-0.0382,-0.0381,0,0.0242,0.026,0.0266,0.0284,0.0297,0.03,0.0313,0.0311,0.0294,0.0276,0.0265,0.0199,0.0083,-0.0052,-0.0217,-0.0291,-0.0423,-0.0468,-0.0403,-0.0425,-0.0453,-0.0443,-0.0549,-0.055,-0.0551,-0.0551,-0.0552,0,0.0218,0.0225,0.0261,0.0271,0.0279,0.0297,0.031,0.0321,0.0326,0.0296,0.0288,0.0191,0.0131,-0.0088,-0.023,-0.044,-0.0456,-0.0536,-0.0477,-0.0452,-0.047,-0.046,-0.0451,-0.0553,-0.0553,-0.0553,-0.0553,0,0.0165,0.0186,0.0195,0.0241,0.0266,0.0296,0.0325,0.0346,0.0356,0.0334,0.0317,0.0218,0.0089,-0.0062,-0.0234,-0.0379,-0.0489,-0.0542,-0.0541,-0.0486,-0.0457,-0.0472,-0.0462,-0.0555,-0.0555,-0.0554,-0.0554,0,0.0113,0.0118,0.0155,0.0202,0.0235,0.0298,0.0319,0.035,0.0371,0.0364,0.0356,0.0232,0.0162,-0.0034,-0.0192,-0.0335,-0.0355,-0.039,-0.0397,-0.0397,-0.0304,-0.0241,-0.0304,0,0,0,0,0,0.007,0.0098,0.0118,0.0188,0.0226,0.0277,0.0327,0.0353,0.0388,0.0386,0.0381,0.0273,0.0078,-0.0001,-0.0138,-0.0219,-0.0403,-0.0387,-0.0452,-0.0566,-0.0564,-0.0478,0,0,0,0,0,0,0.0037,0.0059,0.011,0.018,0.0235,0.03,0.035,0.0374,0.039,0.0396,0.0306,0.0246,0.006,0.0164,-0.0134,-0.0181,-0.0239,-0.0483,-0.0486,-0.0567,-0.0565,-0.0563,-0.0474,0,0,0,0,0]}]]